This demonstration page uses our WeatherBlox Daily Observations layout. Learn more.

Left ArrowRight Arrow

41.12389, -100.76542

Hourly Observations for May 28, 2022

Temp ( °F °C ) Dew Point ( °F °C ) Humidity (%) Winds ( mph kmh ) Pressure ( in mb ) Visibility ( mi km ) Precip ( " mm )
12:53 am 00:53 Clear 65 18.3 50 10 59 59 Calm 29.65 1004 10 16 0.00 0.00
1:53 am 01:53 Clear 68 20 50 10 53 53 ENE 6 9 29.62 1003 10 16 0.00 0.00
2:53 am 02:53 Clear 68 20 49 9.4 51 51 S 6 9 29.61 1003 10 16 0.00 0.00
3:53 am 03:53 Clear 62 16.7 49 9.4 62 62 S 3 6 29.61 1003 10 16 0.00 0.00
4:53 am 04:53 Clear 55 12.8 48 8.9 77 77 Calm 29.62 1003 10 16 0.00 0.00
5:53 am 05:53 Clear 53 11.7 48 8.9 83 83 NE 5 7 29.62 1003 10 16 0.00 0.00
6:53 am 06:53 Sunny 51 10.6 47 8.3 86 86 N 5 7 29.62 1003 10 16 0.00 0.00
7:53 am 07:53 Sunny 60 15.6 52 11.1 75 75 Calm 29.60 1002 10 16 0.00 0.00
8:53 am 08:53 Sunny 69 20.6 53 11.7 57 57 Calm 29.58 1002 10 16 0.00 0.00
9:53 am 09:53 Sunny 75 23.9 55 12.8 50 50 VRB 5 7 29.58 1002 10 16 0.00 0.00
10:53 am 10:53 Sunny 80 26.7 55 12.8 42 42 E 9 15 29.56 1001 10 16 0.00 0.00
11:53 am 11:53 Sunny 83 28.3 58 14.4 43 43 ESE 9 15 29.53 1000 10 16 0.00 0.00
12:53 pm 12:53 Sunny 86 30 56 13.3 36 36 ESE 14 22 29.51 999 10 16 0.00 0.00
1:53 pm 13:53 Sunny 90 32.2 57 13.9 33 33 SE 13 20 29.48 998 10 16 0.00 0.00
2:53 pm 14:53 Sunny 90 32.2 56 13.3 32 32 ESE 20 31 29.44 997 10 16 0.00 0.00
3:53 pm 15:53 Sunny 88 31.1 58 14.4 36 36 SE 14 22 29.43 997 10 16 0.00 0.00
4:53 pm 16:53 Sunny 87 30.6 58 14.4 37 37 SE 12 19 29.41 996 10 16 0.00 0.00
5:53 pm 17:53 Sunny 87 30.6 57 13.9 36 36 SSE 12 19 29.40 996 10 16 0.00 0.00
6:53 pm 18:53 Sunny 87 30.6 59 15 39 39 ESE 14 22 29.36 994 10 16 0.00 0.00
7:53 pm 19:53 Sunny 82 27.8 60 15.6 47 47 ESE 12 19 29.34 994 10 16 0.00 0.00
8:53 pm 20:53 Sunny 78 25.6 60 15.6 54 54 ESE 5 7 29.37 995 10 16 0.00 0.00
9:17 pm 21:17 Clear 80 26.7 60 15.6 51 51 VRB 5 7 29.27 991 10 16 0.00 0.00
9:53 pm 21:53 Clear 76 24.4 61 16.1 60 60 E 10 17 29.34 993 10 16 0.00 0.00
10:53 pm 22:53 Clear 74 23.3 62 16.7 67 67 ENE 8 13 29.33 993 10 16 0.00 0.00
11:53 pm 23:53 Clear 71 21.7 59 15 66 66 N 12 19 29.34 994 10 16 0.00 0.00

Powered by AerisWeather